Content
SEND FEEDBACK

Daily
Averages
Monthly
Summary
United States of America

NEUSE, NORTH CAROLINA


Home > North America > United States > North Carolina
Elevation: 9 meters     Latitude: 35 54N     Longitude: 078 34W

WEATHER
 
SELECT A DAY
Number of Records: 195,341;   Date Range: 1/1/95 - 10/1/14
 
SHARE

PRINT THIS DATA

[ ← Previous Day ]
WEATHER ALMANAC - 12 MARCH, 2013
[ Next Day → ]
[ °F ]   °C
Weather ElementAverageHighLow
Temperature16.3 °C20 °C (2:14 pm)10 °C (11:51 pm)
Dewpoint11.3 °C15 °C (9:19 am)-0.6 °C (11:51 pm)
Humidity74.6 %94 % (4:02 am)44 % (9:51 pm)
Barometer1010.2 hPa1014.2 hPa (11:51 pm)1007.8 hPa (3:51 pm)
Wind Speed16.3 km/h25.9 km/h (6:51 am)
Wind Gust44.4 km/h (7:51 am)
Weather ElementAverage
Visibility14.2 km
Wind DirectionSSW (213.8 °)

Weather ElementTotal
Precipitation15.49 mm
Heating Degree Days3.3 (Base 18.3)
Growing Degree Days5 (Base 10)
Averaged from 29 records on 12 March, 2013
WEATHER CONDITIONS BREAKOUT
WIND DIRECTION BREAKOUT
WEATHER BY HOUR - 12 MARCH, 2013
[ °F ]   °C
Local TimeTemperatureDewpointHumidityBarometerVisibilityWind DirectionWind SpeedGust SpeedPrecipitationEventsConditions
1:51 AM16 °C12 °C77 %1012.9 hPa16.1 kmSSE (160°)16.7 km/h29.6 km/hMostly Cloudy
2:51 AM13.9 °C12.2 °C89 %1011.9 hPa14.5 kmSSE (150°)14.8 km/h0.25 mmRainLight Rain
3:51 AM13.9 °C12.8 °C93 %1010.5 hPa14.5 kmSSE (150°)14.8 km/h1.02 mmRainLight Rain
4:02 AM14 °C13 °C94 %1010.8 hPa14.5 kmSSE (160°)18.5 km/h0 mmRainLight Rain
4:33 AM14 °C13 °C94 %1010.2 hPa12.9 kmSSE (160°)18.5 km/h0.51 mmRainLight Rain
4:51 AM15 °C13.3 °C90 %1009.8 hPa11.3 kmSouth (170°)14.8 km/h1.02 mmRainLight Rain
5:51 AM16 °C14 °C88 %1009.5 hPa11.3 kmSouth (170°)22.2 km/h37 km/hRainLight Rain
6:51 AM16.1 °C14.4 °C90 %1008.8 hPa12.9 kmSouth (180°)25.9 km/h40.7 km/h2.03 mmRainLight Rain
7:51 AM16.1 °C14.4 °C90 %1008.8 hPa6.4 kmSouth (190°)22.2 km/h44.4 km/h0.51 mmRainRain
8:51 AM16 °C14 °C88 %1008.5 hPa8 kmSSW (200°)24.1 km/h40.7 km/hRainLight Rain
9:19 AM16 °C15 °C94 %1009.1 hPa3.2 kmWSW (250°)14.8 km/h2.29 mmRainHeavy Rain
9:37 AM16 °C15 °C94 %1009.8 hPa9.7 kmSW (230°)20.4 km/h7.87 mmRainLight Rain
9:51 AM16 °C15 °C94 %1009.8 hPa16.1 kmSW (230°)25.9 km/hOvercast
10:51 AM17.2 °C15 °C87 %1009.5 hPa16.1 kmSSW (210°)25.9 km/h37 km/h0 mmOvercast
11:51 AM17.2 °C15 °C87 %1009.8 hPa16.1 kmSW (230°)24.1 km/h0 mmOvercast
12:51 PM17.8 °C15 °C84 %1009.8 hPa16.1 kmWSW (250°)14.8 km/h0 mmMostly Cloudy
1:51 PM18.3 °C13.3 °C73 %1008.8 hPa16.1 kmWNW (300°)14.8 km/h33.3 km/hMostly Cloudy
2:14 PM20 °C14 °C68 %1008.8 hPa16.1 kmNNW (330°)13 km/hScattered Clouds
2:51 PM19.4 °C13.3 °C68 %1008.1 hPa16.1 kmNorth (350°)13 km/hScattered Clouds
3:51 PM19.4 °C12.2 °C63 %1007.8 hPa16.1 kmWest (270°)11.1 km/h25.9 km/hMostly Cloudy
4:48 PM20 °C12 °C60 %1008.1 hPa16.1 kmWNW (300°)16.7 km/hMostly Cloudy
4:51 PM20 °C11.1 °C56 %1008.1 hPa16.1 kmWest (280°)18.5 km/h27.8 km/hMostly Cloudy
5:51 PM19.4 °C9.4 °C52 %1008.5 hPa16.1 kmVariable9.3 km/h25.9 km/hMostly Cloudy
6:51 PM18.9 °C7.2 °C47 %1009.5 hPa16.1 kmWNW (300°)14.8 km/hScattered Clouds
7:51 PM16.1 °C6.7 °C54 %1010.8 hPa16.1 kmNW (310°)5.6 km/hScattered Clouds
8:51 PM14.4 °C4.4 °C51 %1012.2 hPa16.1 kmVariable9.3 km/hPartly Cloudy
9:51 PM13 °C1 °C44 %1013.2 hPa16.1 kmVariable7.4 km/hPartly Cloudy
10:51 PM11.7 °C0 °C45 %1013.9 hPa16.1 kmNNW (330°)7.4 km/hClear
11:51 PM10 °C-0.6 °C48 %1014.2 hPa16.1 kmNNW (340°)9.3 km/hClear
Hourly data recorded from KRDU, located 0 kilometers away from Neuse, North Carolina







STORIES FROM OUR PARTNERS